TimeEDT,TemperatureF,Dew PointF,Humidity,Sea Level PressureIn,VisibilityMPH,Wind Direction,Wind SpeedMPH,Gust SpeedMPH,PrecipitationIn,Events,Conditions,WindDirDegrees,DateUTC
12:23 AM,32.0,28.9,88,29.95,6.0,NNW,10.4,-,0.00,Snow,Light Snow,340,2014-04-15 04:23:00
12:54 AM,32.0,28.9,88,29.96,10.0,NNW,9.2,-,0.00,,Overcast,330,2014-04-15 04:54:00
1:21 AM,32.0,28.9,88,29.94,10.0,NNW,9.2,-,N/A,,Overcast,330,2014-04-15 05:21:00
1:35 AM,32.0,28.9,88,29.94,10.0,NNW,12.7,-,N/A,,Overcast,340,2014-04-15 05:35:00
1:54 AM,32.0,28.9,88,29.96,10.0,NNW,8.1,-,N/A,,Overcast,330,2014-04-15 05:54:00
2:06 AM,32.0,28.9,88,29.96,10.0,NW,8.1,-,N/A,,Overcast,310,2014-04-15 06:06:00
2:42 AM,30.9,28.9,92,29.95,2.5,NW,12.7,-,0.00,Snow,Light Snow,310,2014-04-15 06:42:00
2:54 AM,30.9,28.9,92,29.96,3.0,NNW,15.0,20.7,0.00,Snow,Light Snow,330,2014-04-15 06:54:00
3:16 AM,30.9,28.0,89,29.95,5.0,NW,13.8,21.9,0.00,Snow,Light Snow,320,2014-04-15 07:16:00
3:54 AM,30.9,28.0,89,29.97,4.0,NW,12.7,19.6,0.00,Snow,Light Snow,320,2014-04-15 07:54:00
4:19 AM,30.9,27.0,85,29.96,9.0,NW,15.0,19.6,0.00,,Overcast,310,2014-04-15 08:19:00
4:54 AM,30.0,27.0,88,29.98,10.0,NW,12.7,-,0.00,,Overcast,310,2014-04-15 08:54:00
5:09 AM,30.0,27.0,88,29.97,10.0,NW,11.5,-,N/A,,Overcast,320,2014-04-15 09:09:00
5:42 AM,30.0,27.0,88,29.97,10.0,NNW,12.7,-,0.00,,Mostly Cloudy,340,2014-04-15 09:42:00
5:54 AM,30.0,27.0,88,29.99,9.0,NW,12.7,-,0.00,Snow,Light Snow,320,2014-04-15 09:54:00
6:22 AM,30.0,26.1,85,29.99,7.0,NW,11.5,-,0.01,Snow,Light Snow,310,2014-04-15 10:22:00
6:39 AM,28.9,26.1,89,30.00,10.0,NW,10.4,-,0.01,,Overcast,310,2014-04-15 10:39:00
6:54 AM,28.9,25.0,85,30.02,4.0,NW,12.7,-,0.01,Snow,Light Snow,320,2014-04-15 10:54:00
7:07 AM,28.9,26.1,89,30.02,1.0,NW,12.7,23.0,0.00,Snow,Light Snow,320,2014-04-15 11:07:00
7:15 AM,28.0,26.1,92,30.02,1.0,North,11.5,-,0.00,Snow,Light Snow,360,2014-04-15 11:15:00
7:34 AM,28.0,26.1,92,30.04,7.0,North,9.2,-,0.00,Snow,Light Snow,350,2014-04-15 11:34:00
7:47 AM,28.0,25.0,88,30.04,10.0,North,8.1,-,0.00,,Mostly Cloudy,350,2014-04-15 11:47:00
7:54 AM,28.0,26.1,92,30.07,10.0,North,9.2,-,0.00,,Mostly Cloudy,350,2014-04-15 11:54:00
8:54 AM,28.9,24.1,82,30.09,2.5,NNW,12.7,-,0.00,Snow,Light Snow,330,2014-04-15 12:54:00
8:56 AM,28.9,24.1,82,30.07,1.8,NNW,12.7,-,0.00,Snow,Light Snow,340,2014-04-15 12:56:00
8:59 AM,28.9,25.0,85,30.08,1.5,NNW,11.5,-,0.00,Snow,Light Snow,340,2014-04-15 12:59:00
9:15 AM,28.0,24.1,85,30.08,3.0,NW,12.7,-,0.01,Snow,Light Snow,320,2014-04-15 13:15:00
9:54 AM,30.0,24.1,79,30.12,10.0,NW,12.7,-,0.01,,Mostly Cloudy,310,2014-04-15 13:54:00
9:56 AM,30.0,25.0,82,30.10,10.0,NNW,11.5,-,N/A,,Scattered Clouds,330,2014-04-15 13:56:00
10:05 AM,30.9,25.0,79,30.10,10.0,NNW,15.0,-,N/A,,Mostly Cloudy,340,2014-04-15 14:05:00
10:35 AM,32.0,24.1,73,30.11,10.0,North,13.8,-,N/A,,Mostly Cloudy,360,2014-04-15 14:35:00
10:54 AM,30.9,23.0,72,30.14,10.0,North,15.0,-,N/A,,Overcast,350,2014-04-15 14:54:00
11:54 AM,32.0,18.0,56,30.16,10.0,NNW,18.4,26.5,N/A,,Mostly Cloudy,330,2014-04-15 15:54:00
12:54 PM,33.1,15.1,48,30.17,10.0,NW,15.0,20.7,N/A,,Overcast,310,2014-04-15 16:54:00
1:54 PM,34.0,17.1,50,30.17,10.0,NW,15.0,23.0,N/A,,Overcast,320,2014-04-15 17:54:00
2:54 PM,37.0,16.0,42,30.18,10.0,North,13.8,21.9,N/A,,Overcast,350,2014-04-15 18:54:00
3:54 PM,35.1,16.0,46,30.19,10.0,NW,10.4,-,N/A,,Overcast,310,2014-04-15 19:54:00
4:54 PM,36.0,15.1,43,30.19,10.0,NNW,11.5,-,N/A,,Overcast,330,2014-04-15 20:54:00
5:54 PM,36.0,14.0,41,30.19,10.0,NNW,9.2,-,N/A,,Overcast,330,2014-04-15 21:54:00
6:54 PM,36.0,15.1,43,30.20,10.0,Variable,6.9,-,N/A,,Overcast,0,2014-04-15 22:54:00
7:54 PM,35.1,15.1,44,30.21,10.0,NW,3.5,-,N/A,,Mostly Cloudy,310,2014-04-15 23:54:00
8:54 PM,34.0,16.0,48,30.22,10.0,Calm,Calm,-,N/A,,Clear,0,2014-04-16 00:54:00
9:54 PM,30.0,19.0,64,30.24,10.0,Calm,Calm,-,N/A,,Clear,0,2014-04-16 01:54:00
10:54 PM,28.0,19.0,69,30.26,10.0,Calm,Calm,-,N/A,,Clear,0,2014-04-16 02:54:00
11:54 PM,28.0,19.9,72,30.25,10.0,East,3.5,-,N/A,,Clear,80,2014-04-16 03:54:00